TimeMST,TemperatureF,Dew PointF,Humidity,Sea Level PressureIn,VisibilityMPH,Wind Direction,Wind SpeedMPH,Gust SpeedMPH,PrecipitationIn,Events,Conditions,WindDirDegrees,DateUTC
12:15 AM,60.8,37.4,42,29.71,10.0,ESE,4.6,-,N/A,,Clear,110,2013-03-22 07:15:00
12:35 AM,60.8,39.2,45,29.71,10.0,ESE,5.8,-,N/A,,Clear,120,2013-03-22 07:35:00
12:55 AM,60.8,37.4,42,29.71,10.0,East,6.9,-,N/A,,Clear,100,2013-03-22 07:55:00
1:15 AM,59.0,37.4,45,29.71,10.0,East,6.9,-,N/A,,Clear,100,2013-03-22 08:15:00
1:35 AM,57.2,35.6,44,29.72,10.0,ESE,5.8,-,N/A,,Clear,110,2013-03-22 08:35:00
1:55 AM,59.0,35.6,42,29.71,10.0,ESE,8.1,-,N/A,,Clear,120,2013-03-22 08:55:00
2:15 AM,57.2,35.6,44,29.71,10.0,ESE,6.9,-,N/A,,Clear,120,2013-03-22 09:15:00
2:35 AM,57.2,35.6,44,29.70,10.0,ESE,8.1,-,N/A,,Clear,120,2013-03-22 09:35:00
2:55 AM,57.2,35.6,44,29.70,10.0,ESE,6.9,-,N/A,,Clear,110,2013-03-22 09:55:00
3:15 AM,57.2,35.6,44,29.70,10.0,ESE,6.9,-,N/A,,Clear,110,2013-03-22 10:15:00
3:35 AM,57.2,37.4,48,29.70,10.0,ESE,6.9,-,N/A,,Clear,110,2013-03-22 10:35:00
3:55 AM,55.4,35.6,47,29.70,10.0,East,6.9,-,N/A,,Clear,100,2013-03-22 10:55:00
4:15 AM,55.4,35.6,47,29.70,10.0,ESE,6.9,-,N/A,,Clear,110,2013-03-22 11:15:00
4:35 AM,55.4,35.6,47,29.71,10.0,ESE,5.8,-,N/A,,Clear,110,2013-03-22 11:35:00
4:55 AM,55.4,37.4,51,29.71,10.0,ESE,8.1,-,N/A,,Clear,110,2013-03-22 11:55:00
5:15 AM,55.4,37.4,51,29.71,10.0,SE,8.1,-,N/A,,Clear,130,2013-03-22 12:15:00
6:52 AM,55.4,37.4,51,29.73,30.0,ESE,5.8,-,N/A,,Clear,120,2013-03-22 13:52:00
7:50 AM,57.2,39.2,51,29.76,30.0,ESE,4.6,-,N/A,,Clear,110,2013-03-22 14:50:00
8:50 AM,66.2,39.2,37,29.77,30.0,SE,5.8,-,N/A,,Partly Cloudy,130,2013-03-22 15:50:00
9:47 AM,71.6,39.2,31,29.77,30.0,Variable,4.6,-,N/A,,Partly Cloudy,0,2013-03-22 16:47:00
11:47 AM,75.2,37.4,25,29.77,30.0,Calm,Calm,-,N/A,,Clear,0,2013-03-22 18:47:00
12:47 PM,78.8,35.6,21,29.74,30.0,SSW,6.9,-,N/A,,Partly Cloudy,210,2013-03-22 19:47:00
2:47 PM,80.6,33.8,18,29.70,30.0,West,9.2,-,N/A,,Partly Cloudy,270,2013-03-22 21:47:00
3:47 PM,80.6,32.0,17,29.70,30.0,SW,11.5,-,N/A,,Partly Cloudy,230,2013-03-22 22:47:00
4:47 PM,80.6,33.8,18,29.70,30.0,WSW,13.8,20.7,N/A,,Partly Cloudy,240,2013-03-22 23:47:00
5:47 PM,78.8,33.8,20,29.70,30.0,WSW,11.5,20.7,N/A,,Partly Cloudy,240,2013-03-23 00:47:00
6:47 PM,75.2,28.4,18,29.71,20.0,WSW,12.7,-,N/A,,Partly Cloudy,240,2013-03-23 01:47:00
7:47 PM,69.8,33.8,27,29.73,20.0,SW,8.1,-,N/A,,Partly Cloudy,230,2013-03-23 02:47:00
7:55 PM,69.8,32.0,25,29.73,10.0,SW,6.9,-,N/A,,Clear,230,2013-03-23 02:55:00
8:15 PM,69.8,32.0,25,29.73,10.0,SW,8.1,-,N/A,,Clear,230,2013-03-23 03:15:00
8:35 PM,68.0,32.0,26,29.75,10.0,WSW,8.1,-,N/A,,Clear,240,2013-03-23 03:35:00
8:47 PM,68.0,32.0,26,29.75,20.0,SW,8.1,-,N/A,,Partly Cloudy,230,2013-03-23 03:47:00
8:55 PM,66.2,32.0,28,29.75,10.0,SW,8.1,-,N/A,,Clear,230,2013-03-23 03:55:00
9:15 PM,64.4,32.0,30,29.75,10.0,SW,9.2,-,N/A,,Clear,230,2013-03-23 04:15:00
9:35 PM,64.4,32.0,30,29.76,10.0,WSW,6.9,-,N/A,,Clear,240,2013-03-23 04:35:00
9:55 PM,64.4,32.0,30,29.77,10.0,WSW,5.8,-,N/A,,Clear,250,2013-03-23 04:55:00
10:15 PM,62.6,32.0,32,29.77,10.0,WSW,5.8,-,N/A,,Clear,250,2013-03-23 05:15:00
10:35 PM,62.6,33.8,34,29.78,10.0,SW,5.8,-,N/A,,Clear,230,2013-03-23 05:35:00
10:55 PM,62.6,33.8,34,29.78,10.0,SW,6.9,-,N/A,,Clear,230,2013-03-23 05:55:00
11:15 PM,60.8,32.0,34,29.78,10.0,WSW,6.9,-,N/A,,Clear,240,2013-03-23 06:15:00
11:35 PM,60.8,32.0,34,29.79,10.0,SW,6.9,-,N/A,,Clear,230,2013-03-23 06:35:00
11:55 PM,60.8,32.0,34,29.79,10.0,WSW,5.8,-,N/A,,Clear,250,2013-03-23 06:55:00